Weather History for HETB - June, 2013

Change the Weather History Date:

Tuesday, June 18, 2013

  Actual Average Record
Temperature  
Mean Temperature 76 °F -  
Max Temperature 89 °F - - ()
Min Temperature 62 °F - - ()
Cooling Degree Days 10    
Growing Degree Days 26 (Base 50)    
Moisture  
Dew Point 47 °F    
Average Humidity 40    
Maximum Humidity 68    
Minimum Humidity 15    
Precipitation  
Precipitation 0.00 in - - ()
Sea Level Pressure  
Sea Level Pressure 29.82 in    
Wind  
Wind Speed 6 mph ()    
Max Wind Speed 15 mph    
Max Gust Speed -    
T = Trace of Precipitation, MM = Missing Value Source: Averaged Metar Reports

Daily Weather History Graph

Daily Weather History Graph

Search for Another Location

Airport or City:

Trip Planner

Search our weather history database for the weather conditions in past years. The results will help you decide how hot, cold, wet, or windy it might be!

Date:

Astronomy

Jun. 18, 2013 Rise Set
Actual Time 4:40 AM EET 6:43 PM EET
Civil Twilight 4:13 AM EET 7:10 PM EET
Nautical Twilight 3:40 AM EET 7:43 PM EET
Astronomical Twilight 3:04 AM EET 8:19 PM EET
Moon 1:22 PM EET (6/18) 12:16 AM EET (6/18)
Length of Visible Light 14h 57m
Length of Day
14h 02m
Waxing Gibbous, 68% of the Moon is Illuminated
Jun 18
Waxing Gibbous
Jun 23
Full
Jun 30
Last Quarter
Jul 8
New
Jul 16
First Quarter

Hourly Weather History & Observations

Time (EET) Temp. Dew Point Humidity Pressure Visibility Wind Dir Wind Speed Gust Speed Precip Events Conditions
12:00 AM 68.0 °F 55.4 °F 64% 29.86 in - WNW 8.1 mph - N/A   Clear
1:00 AM 66.2 °F 55.4 °F 68% 29.83 in - WNW 9.2 mph - N/A   Clear
2:00 AM 66.2 °F 55.4 °F 68% 29.83 in - WNW 8.1 mph - N/A   Clear
3:00 AM 64.4 °F 53.6 °F 68% 29.83 in - Calm Calm - N/A   Clear
4:00 AM 62.6 °F 51.8 °F 68% 29.83 in - Calm Calm - N/A   Clear
5:00 AM 62.6 °F 51.8 °F 68% 29.83 in - West 3.5 mph - N/A   Clear
6:00 AM 66.2 °F 51.8 °F 60% 29.83 in - Calm Calm - N/A   Clear
7:00 AM 69.8 °F 51.8 °F 53% 29.86 in - WNW 4.6 mph - N/A   Clear
8:00 AM 69.8 °F 51.8 °F 53% 29.86 in - WNW 4.6 mph - N/A   Clear
9:00 AM 77.0 °F 46.4 °F 34% 29.86 in - NNW 3.5 mph - N/A   Clear
10:00 AM 80.6 °F 46.4 °F 30% 29.83 in - NNW 9.2 mph - N/A   Clear
11:00 AM 82.4 °F 46.4 °F 28% 29.83 in - NNW 6.9 mph - N/A   Clear
12:00 PM 84.2 °F 46.4 °F 27% 29.83 in - NW 6.9 mph - N/A   Clear
1:00 PM 87.8 °F 42.8 °F 21% 29.80 in - NNW 4.6 mph - N/A   Clear
2:00 PM 87.8 °F 42.8 °F 21% 29.80 in - NW 5.8 mph - N/A   Clear
3:00 PM 89.6 °F 35.6 °F 15% 29.80 in - WNW 10.4 mph - N/A   Clear
4:00 PM 89.6 °F 35.6 °F 15% 29.77 in - West 11.5 mph - N/A   Clear
5:00 PM 87.8 °F 37.4 °F 17% 29.77 in - WNW 10.4 mph - N/A   Clear
6:00 PM 86.0 °F 39.2 °F 19% 29.80 in - WNW 13.8 mph - N/A   Clear
7:00 PM 84.2 °F 41.0 °F 22% 29.80 in - NW 12.7 mph - N/A   Clear
8:00 PM 80.6 °F 44.6 °F 28% 29.80 in - NW 15.0 mph - N/A   Clear
9:00 PM 78.8 °F 46.4 °F 32% 29.83 in - NW 12.7 mph - N/A   Clear
10:00 PM 75.2 °F 48.2 °F 38% 29.83 in - WNW 10.4 mph - N/A   Clear
11:00 PM 73.4 °F 48.2 °F 41% 29.83 in - WNW 10.4 mph - N/A   Clear